Regional Weather Roundup
Issued by NWS

Home | Current Version | Previous Version | Text Only | Print | Product List | Glossary On
Versions: 1 2 3 4 5 6 7 8 9 10 11 12 13 14 15 16 17 18 19 20 21 22 23 24 25 26 27 28 29 30 31 32 33 34 35 36 37 38 39 40 41 42 43 44 45 46 47 48 49 50
222
ASUS43 KDTX 080010
RWRMI
MICHIGAN HOURLY REGIONAL WEATHER ROUNDUP
NATIONAL WEATHER SERVICE DETROIT/PONTIAC MI
ISSUED BY NATIONAL WEATHER SERVICE GRAND RAPIDS MI
700 PM EST WED DEC 07 2016

NOTE: "FAIR" INDICATES FEW OR NO CLOUDS BELOW 12,000 FEET WITH NO
SIGNIFICANT WEATHER AND/OR OBSTRUCTION TO VISIBILITY.

MIZ047>049-052>055-059>063-066>070-074>076-081>083-080100-
SOUTHEAST LOWER MICHIGAN

CITY           SKY/WX    TMP DP  RH WIND       PRES   REMARKS
ADRIAN         PTCLDY    31  24  75 W9        30.06R WCI  23
6HR MIN TEMP:  31; 6HR MAX TEMP:  34;

ALMA           CLOUDY    33  24  70 SW17G24   29.98R WCI  21
ANN ARBOR      PTCLDY    30  23  75 SW9       30.04R WCI  22
BAD AXE        CLEAR     32  23  70 SW15G21   29.94R WCI  21
DETROIT CITY   MOCLDY    32  25  75 SW13      30.03S WCI  22
6HR MIN TEMP:  32; 6HR MAX TEMP:  37;

DETROIT        CLOUDY    32  24  72 SW13      30.05S WCI  22
6HR MIN TEMP:  32; 6HR MAX TEMP:  38;

FLINT          PTCLDY    32  23  69 W10       29.99R WCI  24
6HR MIN TEMP:  32; 6HR MAX TEMP:  39;

GROSSE ILE     CLOUDY    32  24  73 W10G16    30.04S WCI  24
6HR MIN TEMP:  32; 6HR MAX TEMP:  36;

HILLSDALE      CLEAR     30  23  74 SW10G17   30.03S WCI  21
HOWELL         CLOUDY    32  22  67 SW13G23   30.01R WCI  22

CITY           SKY/WX    TMP DP  RH WIND       PRES   REMARKS
JACKSON        CLOUDY    31  21  66 SW16      30.04R WCI  20
6HR MIN TEMP:  31; 6HR MAX TEMP:  37;

LANSING        CLOUDY    32  22  66 SW14      30.02R WCI  22
6HR MIN TEMP:  32; 6HR MAX TEMP:  38;

MASON          CLOUDY    32  24  71 SW8G16    30.02R WCI  25
MONROE         CLOUDY    32  26  79 SW10      30.05R WCI  24
6HR MIN TEMP:  32; 6HR MAX TEMP:  35;

MT. CLEMENS    PTCLDY    33  25  72 SW12G22   29.99S WCI  24
6HR MIN TEMP:  33; 6HR MAX TEMP:  39;

PONTIAC        MOCLDY    32  23  69 SW10      29.98S WCI  24
6HR MIN TEMP:  32; 6HR MAX TEMP:  38;

PORT HOPE        N/A     33  23  66 SW10G22   29.90R WCI  25
6HR MIN TEMP:  33; 6HR MAX TEMP:  36;

PORT HURON     CLOUDY    32  25  74 SW9G16    29.99S WCI  24
TRI CITIES     MOCLDY    32  24  72 SW16G25   29.96S WCI  21
6HR MIN TEMP:  32; 6HR MAX TEMP:  37;

YPSILANTI      PTCLDY    33  24  69 SW13      30.05R WCI  24
6HR MIN TEMP:  33; 6HR MAX TEMP:  38;

$$
MIZ043>046-050>051-056>058-064>065-071>073-077>080-080100-
SOUTHWEST LOWER MICHIGAN

CITY           SKY/WX    TMP DP  RH WIND       PRES   REMARKS
BATTLE CREEK   CLOUDY    30  23  75 SW16      30.04R WCI  19
6HR MIN TEMP:  30; 6HR MAX TEMP:  37;

BENTON HARBOR  CLOUDY    32  21  64 W18G29    30.08S WCI  20
6HR MIN TEMP:  32; 6HR MAX TEMP:  35;

BIG RAPIDS     CLOUDY    31  21  66 W15G24    29.94R WCI  20
6HR MIN TEMP:  31; 6HR MAX TEMP:  34;

COLDWATER      PTCLDY    29  21  72 W13       30.06S WCI  19
6HR MIN TEMP:  29; 6HR MAX TEMP:  36;

HOLLAND        CLOUDY    33  24  69 W21       30.03S WCI  21
6HR MIN TEMP:  33; 6HR MAX TEMP:  35;

GRAND RAPIDS   CLOUDY    33  24  69 SW20G29   30.01S WCI  21
6HR MIN TEMP:  32; 6HR MAX TEMP:  35;

KALAMAZOO      CLOUDY    31  21  66 SW14      30.05S WCI  21
6HR MIN TEMP:  31; 6HR MAX TEMP:  36;

MARSHALL       CLOUDY    31  22  69 SW10G17   30.04R WCI  22
6HR MIN TEMP:  31; 6HR MAX TEMP:  37;

MOUNT PLEASANT CLOUDY    32  22  67 SW14G23   29.95R WCI  22
6HR MIN TEMP:  31; 6HR MAX TEMP:  36;

MUSKEGON       CLOUDY    32  23  69 SW15G23   30.02R WCI  22
6HR MIN TEMP:  32; 6HR MAX TEMP:  34;

STURGIS        PTCLDY    28  22  75 W12G17    30.07S WCI  18
6HR MIN TEMP:  28; 6HR MAX TEMP:  34;

$$
MIZ016>042-080100-
NORTHERN LOWER MICHIGAN

CITY           SKY/WX    TMP DP  RH WIND       PRES   REMARKS
ALPENA         CLOUDY    30  17  58 SW17G25   29.86S WCI  18
6HR MIN TEMP:  30; 6HR MAX TEMP:  34;

BEAVER ISLAND  CLOUDY    29  20  68 SW20G28   29.82S WCI  17
6HR MIN TEMP:  29; 6HR MAX TEMP:  29;

BELLAIRE       CLOUDY    30  21  69 SW12G18   29.88S WCI  20
6HR MIN TEMP:  30; 6HR MAX TEMP:  31;

CADILLAC       CLOUDY    26  19  74 W10G17    29.89S WCI  16
CHARLEVOIX     CLOUDY    31  19  62 SW20G28   29.87S WCI  19
6HR MIN TEMP:  30; 6HR MAX TEMP:  31;

GAYLORD        CLOUDY    27  17  66 SW20G30   29.82F WCI  13
6HR MIN TEMP:  27; 6HR MAX TEMP:  30;

HOUGHTON LAKE  CLOUDY    28  20  71 W14G22    29.89S WCI  17
6HR MIN TEMP:  28; 6HR MAX TEMP:  32;

MANISTEE       CLOUDY    28  20  71 W13G23    29.96R WCI  17
OSCODA         CLOUDY    32  20  63 MISG      29.89R
6HR MIN TEMP:  31; 6HR MAX TEMP:  38;

PELLSTON       MIX PCPN  30  18  60 SW17G26   29.82S WCI  18
6HR MIN TEMP:  30; 6HR MAX TEMP:  31; 6HR PCP:  0.02;

TRAVERSE CITY  FLURRIES  30  19  63 SW13G22   29.90R WCI  20
6HR MIN TEMP:  30; 6HR MAX TEMP:  32; 6HR PCP: TRACE;

LUDINGTON      CLOUDY    28  20  71 W14G20    29.98R WCI  17
6HR MIN TEMP:  28; 6HR MAX TEMP:  29;

$$
MIZ007>008-015-080100-
EASTERN UPPER MICHIGAN

CITY           SKY/WX    TMP DP  RH WIND       PRES   REMARKS
MACKINAC ISLAN FLURRIES  29  21  72 W17G33    29.79S WCI  17
6HR MIN TEMP:  28; 6HR MAX TEMP:  31;

NEWBERRY       CLOUDY    24  13  64 W14G21    29.79S WCI  11
6HR MIN TEMP:  24; 6HR MAX TEMP:  25;

$$
MIZ004>006-011>014-085-080100-
CENTRAL UPPER MICHIGAN

CITY           SKY/WX    TMP DP  RH WIND       PRES   REMARKS
MANISTIQUE     CLOUDY    24  13  62 W8        29.83R WCI  16
6HR MIN TEMP:  24; 6HR MAX TEMP:  28;

$$
MIZ001>003-009>011-084-080100-
WESTERN UPPER MICHIGAN

CITY           SKY/WX    TMP DP  RH WIND       PRES   REMARKS
$$

ABBREVIATIONS USED IN REMARKS
   TC - TEMPERATURE IN CELSIUS
  WCI - WIND CHILL INDEX
   HX - HEAT INDEX
  VSB - VISIBILITY





USA.gov is the U.S. government's official web portal to all federal, state and local government web resources and services.